Regional Weather Roundup
Issued by NWS

Home | Current Version | Previous Version | Graphics & Text | Print | Product List | Glossary On
Versions: 1 2 3 4 5 6 7 8 9 10 11 12 13 14 15 16 17 18 19 20 21 22 23 24 25 26 27 28 29 30 31 32 33 34 35 36 37 38 39 40 41 42 43 44 45 46 47 48 49 50
000
ASUS43 KIND 050209
RWRIN

WEATHER ROUNDUP FOR INDIANA
NATIONAL WEATHER SERVICE INDIANAPOLIS IN
900 PM EST WED MAR 04 2015

NOTE: "FAIR" INDICATES FEW OR NO CLOUDS BELOW 12,000 FEET WITH NO
SIGNIFICANT WEATHER AND/OR OBSTRUCTIONS TO VISIBILITY.

* - STATION DOES NOT REPORT WEATHER SUCH AS PRECIPITATION OR FOG.

+ - STATION NOT QUALITY CONTROLLED BY THE NATIONAL WEATHER SERVICE.
    USE DATA WITH CAUTION...ESPECIALLY DEWPOINT AND RELATIVE
    HUMIDITY OBSERVATIONS.

INZ001>003-010>013-019-020-050300-
NORTHWEST INDIANA

CITY           SKY/WX    TMP DP  RH WIND       PRES   REMARKS
GARY /AIRPORT/ MOCLDY    19  -4  35 W14       30.28R WCI   6
KNOX *+          N/A     19  -6  32 NW6       30.25R WCI  11
LA PORTE +     CLOUDY    20   4  49 NW8       30.26R WCI  11
MICHIGAN CITY+ CLOUDY    19   0  42 NW8       30.27R WCI   9
MONTICELLO +   MOCLDY    18  11  75 NW8       30.25R WCI   8
RENSSELAER +   CLOUDY    19  12  73 W10       30.26R WCI   8
VALPARAISO     CLOUDY    19   0  43 NW9       30.24R WCI   8

$$

LMZ046-743>745-050300-
SOUTHERN LAKE MICHIGAN

STATION/POSITION TIME  TEMP WIND        PRES
                       AIR  DIR/SP/G
                 (UTC) (F)  (DEG/KT/KT) (MB)
MICHIGAN CITY    0200   18  270/ 11/ 13   N/A

$$

INZ004-005-014>016-021>024-050300-
NORTH CENTRAL INDIANA

CITY           SKY/WX    TMP DP  RH WIND       PRES   REMARKS
ELKHART        CLEAR     19   1  45 NW6       30.22  WCI  11
GOSHEN         CLOUDY    18   6  59 NW10      30.21R WCI   6
LOGANSPORT +   MOCLDY    19   9  63 N8        30.24R WCI   9
PERU/GRISSOM   CLOUDY    19   7  58 NW13      30.21R WCI   7
ROCHESTER +    CLOUDY    23  10  58 NW7       30.24R WCI  15
SOUTH BEND     CLOUDY    19   5  54 NW6       30.22F WCI  11
WARSAW +       CLOUDY    19   9  63 N7        30.20R WCI  10

$$

INZ006>009-017-018-025>027-050300-
NORTHEAST INDIANA

CITY           SKY/WX    TMP DP  RH WIND       PRES   REMARKS
ANGOLA *+      CLEAR     16   5  62 NW7       30.16S WCI   6
AUBURN +       CLOUDY    19   7  58 NW8G17    30.17F WCI   9
FORT WAYNE     CLOUDY    19   7  59 NW12      30.17F WCI   7
HUNTINGTON +   CLOUDY    19   5  54 N7        30.20R WCI  10

$$

INZ028-029-035-036-043>045-051>053-050300-
WEST CENTRAL INDIANA

CITY           SKY/WX    TMP DP  RH WIND       PRES   REMARKS
CRAWFORDSVL +  MOCLDY    16   5  62 NW10      30.24R WCI   3
GREENCASTLE +  CLOUDY    19   5  53 NW5       30.24R WCI  13
LAFAYETTE      MOCLDY    17   8  67 NW13      30.25R WCI   4
TERRE HAUTE    CLOUDY    19   8  62 N10       30.27R WCI   7

$$

INZ030>032-037>040-046>048-054>057-064-065-050300-
CENTRAL INDIANA

CITY           SKY/WX    TMP DP  RH WIND       PRES   REMARKS
CP ATTERBURY + CLOUDY    23  14  68 NW9       30.23R WCI  13
COLUMBUS       CLOUDY    21  14  73 NW14      30.23R WCI   8
FRANKFORT +    PTCLDY    19  11  74 W9        30.24R WCI   7
INDIANAPOLIS   CLOUDY    20  11  68 NW9       30.21R WCI   9
-EAGLE CREEK   MOCLDY    19  11  70 NW9       30.22R WCI   8
KOKOMO *+        N/A    N/A N/A N/A MISG        N/A
MARION +       MOCLDY    19   7  60 N9        30.21R WCI   8
MT COMFORT *+  CLOUDY    21   9  58 NW9       30.22R WCI  11
SHELBYVILLE    CLOUDY    24  15  68 NW13      30.22R WCI  12
ZIONSVILLE +   MOCLDY    20  11  69 NW10      30.22R WCI   8

$$

INZ033-034-041-042-049-050-058-059-050300-
EAST CENTRAL INDIANA

CITY           SKY/WX    TMP DP  RH WIND       PRES   REMARKS
MUNCIE         CLOUDY    21  10  62 N12       30.19R WCI   9

$$

INZ060-061-067>069-081>083-085>088-050300-
SOUTHWEST INDIANA

CITY           SKY/WX    TMP DP  RH WIND       PRES   REMARKS
EVANSVILLE     FOG       19  15  84 N12       30.28R VSB 1   WCI   7
HUNTINGBURG *+ CLOUDY    19  14  79 N10       30.24F VSB 1   WCI   8
WASHINGTON +   CLOUDY    20   9  61 N8        30.26S WCI  10

$$

INZ062-063-066-070>080-084-089>092-050300-
SOUTH CENTRAL AND SOUTHEAST INDIANA

CITY           SKY/WX    TMP DP  RH WIND       PRES   REMARKS
BEDFORD +      CLOUDY    23  10  58 NW10      30.22R WCI  12
BLOOMINGTON    CLOUDY    20  10  65 N12       30.22R WCI   8
NORTH VERNON + LGT SNOW  23  23 100 NW9G17    30.21R WCI  13
SEYMOUR +      LGT SNOW  23  21  93 N7        30.22R WCI  15

$$



USA.gov is the U.S. government's official web portal to all federal, state and local government web resources and services.